| time (UTC) | temp F | wind direction | speed MPH | gust MPH | rain 1hr in | rain 24hr in | rain mn in | humidity % | barometer mb |
| 20260506151127 | 54 | 77 | 2.0 | 3.0 | 0.07 | 0.01 | 0.01 | 87 | 1016.7 |
| 20260506150624 | 54 | 262 | 0.0 | 1.0 | 0.00 | 0.00 | 0.00 | 86 | 1016.5 |
| 20260506150121 | 54 | 175 | 1.0 | 6.0 | 0.00 | 0.00 | 0.00 | 83 | 1016.0 |
| 20260506145618 | 55 | 81 | 2.0 | 4.0 | 0.00 | 0.00 | 0.00 | 83 | 1015.6 |
| 20260506145114 | 55 | 270 | 0.0 | 2.0 | 0.00 | 0.00 | 0.00 | 83 | 1015.9 |
| 20260506144611 | 55 | 318 | 0.0 | 4.0 | 0.00 | 0.00 | 0.00 | 83 | 1015.4 |
| 20260506144108 | 55 | 90 | 1.0 | 5.0 | 0.00 | 0.00 | 0.00 | 83 | 1014.8 |
| 20260506143606 | 55 | 12 | 1.0 | 5.0 | 0.00 | 0.00 | 0.00 | 83 | 1014.5 |
| 20260506143104 | 55 | 29 | 6.0 | 6.0 | 0.00 | 0.00 | 0.00 | 83 | 1014.1 |
| 20260506142602 | 54 | 57 | 5.0 | 5.0 | 0.00 | 0.00 | 0.00 | 83 | 1015.4 |
| 20260506142100 | 55 | 270 | 0.0 | 3.0 | 0.00 | 0.00 | 0.00 | 83 | 1015.6 |
| 20260506141557 | 55 | 341 | 2.0 | 5.0 | 0.00 | 0.00 | 0.00 | 82 | 1015.5 |
| 20260506141055 | 55 | 165 | 0.0 | 4.0 | 0.00 | 0.00 | 0.00 | 82 | 1015.3 |
| 20260506140552 | 54 | 90 | 1.0 | 4.0 | 0.00 | 0.00 | 0.00 | 82 | 1015.2 |
| 20260506140050 | 55 | 51 | 5.0 | 6.0 | 0.00 | 0.00 | 0.00 | 82 | 1014.8 |
| 20260506135546 | 55 | 90 | 2.0 | 5.0 | 0.00 | 0.00 | 0.00 | 82 | 1014.4 |
| 20260506135042 | 54 | 103 | 0.0 | 4.0 | 0.00 | 0.00 | 0.00 | 83 | 1014.6 |
| 20260506134539 | 54 | 96 | 1.0 | 7.0 | 0.00 | 0.00 | 0.00 | 83 | 1014.7 |
| 20260506134035 | 54 | 85 | 3.0 | 6.0 | 0.00 | 0.00 | 0.00 | 83 | 1014.3 |
| 20260506133532 | 54 | 358 | 3.0 | 7.0 | 0.00 | 0.00 | 0.00 | 83 | 1014.1 |
| 20260506133029 | 54 | 334 | 0.0 | 5.0 | 0.00 | 0.00 | 0.00 | 83 | 1014.4 |
| 20260506132526 | 54 | 54 | 3.0 | 7.0 | 0.00 | 0.00 | 0.00 | 83 | 1014.2 |
| 20260506132024 | 54 | 328 | 0.0 | 9.0 | 0.00 | 0.00 | 0.00 | 83 | 1014.1 |
| 20260506131521 | 54 | 332 | 0.0 | 4.0 | 0.00 | 0.00 | 0.00 | 82 | 1013.8 |
| 20260506131017 | 54 | 24 | 0.0 | 5.0 | 0.00 | 0.00 | 0.00 | 83 | 1014.0 |
| 20260506130514 | 54 | 331 | 4.0 | 6.0 | 0.00 | 0.00 | 0.00 | 83 | 1013.9 |
| 20260506130012 | 54 | 81 | 3.0 | 7.0 | 0.00 | 0.00 | 0.00 | 83 | 1013.7 |
| 20260506125510 | 54 | 103 | 1.0 | 6.0 | 0.00 | 0.00 | 0.00 | 83 | 1013.5 |
| 20260506125007 | 54 | 32 | 0.0 | 4.0 | 0.00 | 0.00 | 0.00 | 83 | 1013.7 |
| 20260506124505 | 54 | 320 | 0.0 | 7.0 | 0.00 | 0.00 | 0.00 | 83 | 1013.6 |
| 20260506124003 | 54 | 337 | 2.0 | 8.0 | 0.00 | 0.00 | 0.00 | 83 | 1013.7 |
| 20260506123500 | 54 | 74 | 2.0 | 3.0 | 0.00 | 0.00 | 0.00 | 82 | 1013.6 |
| 20260506122958 | 54 | 63 | 2.0 | 5.0 | 0.00 | 0.00 | 0.00 | 81 | 1013.4 |
| 20260506122454 | 54 | 231 | 2.0 | 5.0 | 0.00 | 0.00 | 0.00 | 81 | 1013.1 |
| 20260506121953 | 54 | 107 | 4.0 | 8.0 | 0.00 | 0.00 | 0.00 | 80 | 1013.3 |
| 20260506121450 | 55 | 161 | 4.0 | 4.0 | 0.00 | 0.00 | 0.00 | 79 | 1013.6 |
| 20260506120946 | 55 | 103 | 1.0 | 3.0 | 0.00 | 0.00 | 0.00 | 79 | 1013.3 |
| 20260506120444 | 55 | 297 | 0.0 | 4.0 | 0.00 | 0.00 | 0.00 | 79 | 1013.3 |
| 20260506115941 | 55 | 285 | 2.0 | 5.0 | 0.00 | 0.00 | 0.00 | 78 | 1013.4 |
| 20260506115439 | 55 | 90 | 0.0 | 5.0 | 0.00 | 0.00 | 0.00 | 78 | 1013.4 |
| 20260506114937 | 55 | 70 | 2.0 | 5.0 | 0.00 | 0.00 | 0.00 | 78 | 1013.1 |
| 20260506114434 | 55 | 170 | 0.0 | 5.0 | 0.00 | 0.00 | 0.00 | 77 | 1012.8 |
| 20260506113933 | 55 | 37 | 2.0 | 6.0 | 0.00 | 0.00 | 0.00 | 77 | 1012.8 |
| 20260506113430 | 56 | 104 | 0.0 | 6.0 | 0.00 | 0.00 | 0.00 | 77 | 1012.8 |
| 20260506112926 | 56 | 90 | 2.0 | 5.0 | 0.00 | 0.00 | 0.00 | 78 | 1012.7 |
| 20260506112425 | 56 | 158 | 3.0 | 6.0 | 0.00 | 0.00 | 0.00 | 77 | 1012.6 |
| 20260506111921 | 56 | 40 | 2.0 | 3.0 | 0.00 | 0.00 | 0.00 | 77 | 1012.3 |
| 20260506111419 | 56 | 157 | 0.0 | 5.0 | 0.00 | 0.00 | 0.00 | 77 | 1012.3 |
| 20260506110916 | 56 | 319 | 2.0 | 9.0 | 0.00 | 0.00 | 0.00 | 77 | 1012.5 |
| 20260506110414 | 56 | 221 | 2.0 | 5.0 | 0.00 | 0.00 | 0.00 | 77 | 1012.3 |
| 20260506105910 | 56 | 116 | 3.0 | 8.0 | 0.00 | 0.00 | 0.00 | 76 | 1012.2 |
| 20260506105407 | 57 | 90 | 1.0 | 5.0 | 0.00 | 0.00 | 0.00 | 76 | 1012.2 |
| 20260506104904 | 56 | 331 | 1.0 | 5.0 | 0.00 | 0.00 | 0.00 | 76 | 1012.0 |
| 20260506104402 | 57 | 299 | 3.0 | 8.0 | 0.00 | 0.00 | 0.00 | 76 | 1011.9 |
| 20260506103900 | 57 | 77 | 3.0 | 5.0 | 0.00 | 0.00 | 0.00 | 76 | 1012.0 |
| 20260506103357 | 57 | 180 | 0.0 | 6.0 | 0.00 | 0.00 | 0.00 | 76 | 1011.8 |
| 20260506102854 | 57 | 69 | 0.0 | 5.0 | 0.00 | 0.00 | 0.00 | 76 | 1011.8 |
| 20260506102352 | 57 | 85 | 0.0 | 5.0 | 0.00 | 0.00 | 0.00 | 76 | 1011.7 |
| 20260506101849 | 57 | 77 | 6.0 | 6.0 | 0.00 | 0.00 | 0.00 | 75 | 1011.5 |
| 20260506101345 | 57 | 164 | 2.0 | 4.0 | 0.00 | 0.00 | 0.00 | 76 | 1011.4 |
| 20260506100843 | 57 | 341 | 2.0 | 4.0 | 0.00 | 0.00 | 0.00 | 76 | 1011.5 |
| 20260506100341 | 57 | 164 | 6.0 | 6.0 | 0.00 | 0.00 | 0.00 | 75 | 1011.3 |
| 20260506095839 | 57 | 120 | 2.0 | 4.0 | 0.00 | 0.00 | 0.00 | 76 | 1011.2 |
| 20260506095336 | 57 | 71 | 3.0 | 6.0 | 0.00 | 0.00 | 0.00 | 76 | 1011.3 |
| 20260506094832 | 58 | 75 | 2.0 | 4.0 | 0.00 | 0.00 | 0.00 | 76 | 1011.2 |
| 20260506094332 | 58 | 331 | 0.0 | 3.0 | 0.00 | 0.00 | 0.00 | 76 | 1011.1 |
| 20260506093829 | 58 | 90 | 2.0 | 5.0 | 0.00 | 0.00 | 0.00 | 77 | 1011.3 |
| 20260506093326 | 58 | 114 | 2.0 | 5.0 | 0.00 | 0.00 | 0.00 | 77 | 1010.9 |
| 20260506092824 | 58 | 0 | 1.0 | 4.0 | 0.00 | 0.00 | 0.00 | 77 | 1011.0 |
| 20260506092321 | 58 | 342 | 3.0 | 4.0 | 0.00 | 0.00 | 0.00 | 77 | 1011.1 |
| 20260506091818 | 58 | 52 | 0.0 | 4.0 | 0.00 | 0.00 | 0.00 | 77 | 1010.9 |
| 20260506091316 | 58 | 93 | 0.0 | 4.0 | 0.00 | 0.00 | 0.00 | 77 | 1010.9 |
| 20260506090813 | 58 | 98 | 0.0 | 6.0 | 0.00 | 0.00 | 0.00 | 77 | 1011.0 |
| 20260506090310 | 58 | 17 | 2.0 | 5.0 | 0.00 | 0.00 | 0.00 | 77 | 1010.9 |
| 20260506085807 | 58 | 139 | 2.0 | 4.0 | 0.00 | 0.00 | 0.00 | 77 | 1010.7 |
| 20260506085305 | 58 | 148 | 0.0 | 5.0 | 0.00 | 0.00 | 0.00 | 77 | 1010.7 |
| 20260506084800 | 58 | 356 | 0.0 | 4.0 | 0.00 | 0.00 | 0.00 | 77 | 1010.7 |
| 20260506084256 | 59 | 48 | 4.0 | 4.0 | 0.00 | 0.00 | 0.00 | 77 | 1010.7 |
| 20260506083753 | 59 | 56 | 6.0 | 6.0 | 0.00 | 0.00 | 0.00 | 77 | 1010.4 |
| 20260506083251 | 59 | 81 | 2.0 | 3.0 | 0.00 | 0.00 | 0.00 | 77 | 1010.5 |
| 20260506082748 | 59 | 77 | 2.0 | 3.0 | 0.00 | 0.00 | 0.00 | 77 | 1010.7 |
| 20260506082243 | 59 | 97 | 1.0 | 2.0 | 0.00 | 0.00 | 0.00 | 78 | 1010.7 |
| 20260506081741 | 59 | 86 | 3.0 | 5.0 | 0.00 | 0.00 | 0.00 | 78 | 1010.5 |
| 20260506081238 | 59 | 63 | 1.0 | 5.0 | 0.00 | 0.00 | 0.00 | 77 | 1010.6 |
| 20260506080737 | 59 | 105 | 0.0 | 4.0 | 0.00 | 0.00 | 0.00 | 77 | 1010.5 |
| 20260506080233 | 59 | 86 | 0.0 | 3.0 | 0.00 | 0.00 | 0.00 | 78 | 1010.5 |
| 20260506073217 | 59 | 68 | 3.0 | 7.0 | 0.00 | 0.00 | 0.00 | 77 | 1009.7 |
| 20260506072714 | 60 | 270 | 0.0 | 3.0 | 0.00 | 0.00 | 0.00 | 77 | 1010.0 |
| 20260506072211 | 60 | 279 | 2.0 | 5.0 | 0.00 | 0.00 | 0.00 | 77 | 1010.3 |
| 20260506071709 | 60 | 177 | 3.0 | 3.0 | 0.00 | 0.00 | 0.00 | 78 | 1010.2 |
| 20260506071207 | 60 | 169 | 0.0 | 4.0 | 0.00 | 0.00 | 0.00 | 77 | 1010.0 |
| 20260506070703 | 60 | 75 | 0.0 | 3.0 | 0.00 | 0.00 | 0.00 | 77 | 1010.4 |
| 20260506070200 | 60 | 162 | 1.0 | 6.0 | 0.00 | 0.00 | 0.00 | 77 | 1010.3 |
| 20260506062137 | 61 | 84 | 2.0 | 5.0 | 0.00 | 0.00 | 0.00 | 79 | 1010.0 |
| 20260506061633 | 61 | 344 | 2.0 | 4.0 | 0.00 | 0.00 | 0.00 | 79 | 1010.4 |
| 20260506061131 | 61 | 278 | 0.0 | 3.0 | 0.00 | 0.00 | 0.00 | 79 | 1010.3 |
| 20260506060629 | 61 | 355 | 2.0 | 5.0 | 0.00 | 0.00 | 0.00 | 79 | 1010.1 |
| 20260506060126 | 61 | 81 | 0.0 | 5.0 | 0.00 | 0.00 | 0.00 | 80 | 1010.3 |
| 20260506051058 | 62 | 159 | 3.0 | 4.0 | 0.00 | 0.00 | 0.00 | 79 | 1010.3 |
| 20260506050555 | 62 | 16 | 2.0 | 3.0 | 0.00 | 0.00 | 0.00 | 79 | 1010.2 |
| 20260506045046 | 63 | 30 | 0.0 | 4.0 | 0.00 | 0.00 | 0.00 | 79 | 1010.3 |
| 20260506044544 | 63 | 340 | 3.0 | 5.0 | 0.00 | 0.00 | 0.00 | 79 | 1009.9 |
| 20260506044041 | 63 | 29 | 0.0 | 7.0 | 0.00 | 0.00 | 0.00 | 79 | 1010.3 |
| 20260506043538 | 63 | 6 | 3.0 | 7.0 | 0.00 | 0.00 | 0.00 | 78 | 1010.3 |
| 20260506043036 | 64 | 3 | 3.0 | 7.0 | 0.00 | 0.00 | 0.00 | 78 | 1010.2 |
| 20260506042535 | 64 | 254 | 0.0 | 4.0 | 0.00 | 0.00 | 0.00 | 79 | 1010.2 |
| 20260506042032 | 64 | 233 | 3.0 | 4.0 | 0.00 | 0.00 | 0.00 | 78 | 1010.1 |
| 20260506041531 | 64 | 276 | 3.0 | 5.0 | 0.00 | 0.00 | 0.00 | 79 | 1009.9 |
| 20260506041027 | 64 | 71 | 3.0 | 9.0 | 0.00 | 0.00 | 0.00 | 78 | 1009.6 |
| 20260506040525 | 64 | 7 | 0.0 | 6.0 | 0.00 | 0.00 | 0.00 | 79 | 1009.8 |
| 20260506040021 | 65 | 90 | 3.0 | 4.0 | 0.00 | 0.00 | 0.00 | 78 | 1009.8 |
| 20260506035518 | 65 | 105 | 1.0 | 5.0 | 0.00 | 0.00 | 0.00 | 78 | 1009.5 |
| 20260506035015 | 65 | 82 | 3.0 | 6.0 | 0.00 | 0.00 | 0.00 | 78 | 1009.5 |
| 20260506034512 | 65 | 85 | 2.0 | 4.0 | 0.00 | 0.00 | 0.00 | 78 | 1009.3 |
| 20260506034009 | 66 | 90 | 4.0 | 6.0 | 0.00 | 0.00 | 0.00 | 78 | 1009.0 |
| 20260506033507 | 66 | 159 | 2.0 | 3.0 | 0.00 | 0.00 | 0.00 | 78 | 1009.2 |
| 20260506033004 | 66 | 84 | 3.0 | 7.0 | 0.00 | 0.00 | 0.00 | 78 | 1009.0 |
| 20260506032501 | 67 | 195 | 2.0 | 2.0 | 0.00 | 0.00 | 0.00 | 77 | 1009.0 |
| 20260506031956 | 67 | 18 | 0.0 | 4.0 | 0.00 | 0.00 | 0.00 | 77 | 1008.8 |
| 20260506031455 | 67 | 74 | 2.0 | 4.0 | 0.00 | 0.00 | 0.00 | 77 | 1008.9 |
| 20260506030952 | 68 | 25 | 0.0 | 7.0 | 0.00 | 0.00 | 0.00 | 77 | 1009.1 |
| 20260506030450 | 68 | 315 | 2.0 | 4.0 | 0.00 | 0.00 | 0.00 | 76 | 1008.7 |
| 20260506025946 | 69 | 75 | 3.0 | 3.0 | 0.00 | 0.00 | 0.00 | 76 | 1008.8 |
| 20260506025443 | 69 | 174 | 0.0 | 12.0 | 0.00 | 0.00 | 0.00 | 76 | 1008.6 |
| 20260506024940 | 69 | 82 | 0.0 | 5.0 | 0.00 | 0.00 | 0.00 | 75 | 1008.7 |
| 20260506024437 | 69 | 186 | 1.0 | 5.0 | 0.00 | 0.00 | 0.00 | 75 | 1008.6 |
| 20260506023932 | 69 | 41 | 2.0 | 4.0 | 0.00 | 0.00 | 0.00 | 75 | 1008.3 |
| 20260506023429 | 69 | 180 | 0.0 | 6.0 | 0.00 | 0.00 | 0.00 | 75 | 1008.1 |
| 20260506022926 | 69 | 80 | 3.0 | 5.0 | 0.00 | 0.00 | 0.00 | 75 | 1008.2 |
| 20260506022424 | 69 | 21 | 2.0 | 3.0 | 0.00 | 0.00 | 0.00 | 74 | 1007.8 |
| 20260506021922 | 69 | 102 | 6.0 | 6.0 | 0.00 | 0.00 | 0.00 | 74 | 1007.7 |
| 20260506021419 | 69 | 90 | 2.0 | 5.0 | 0.00 | 0.00 | 0.00 | 73 | 1007.3 |
| 20260506020916 | 70 | 8 | 0.0 | 5.0 | 0.00 | 0.00 | 0.00 | 73 | 1007.7 |
| 20260506020414 | 70 | 151 | 0.0 | 5.0 | 0.00 | 0.00 | 0.00 | 73 | 1007.7 |
| 20260506015910 | 70 | 283 | 0.0 | 4.0 | 0.00 | 0.00 | 0.00 | 72 | 1007.2 |
| 20260506015408 | 70 | 122 | 0.0 | 5.0 | 0.00 | 0.00 | 0.00 | 72 | 1006.8 |
| 20260506014904 | 70 | 2 | 4.0 | 4.0 | 0.00 | 0.00 | 0.00 | 72 | 1006.9 |
| 20260506014401 | 71 | 301 | 0.0 | 3.0 | 0.00 | 0.00 | 0.00 | 72 | 1006.6 |
| 20260506013858 | 71 | 77 | 0.0 | 2.0 | 0.00 | 0.00 | 0.00 | 72 | 1007.0 |
| 20260506013356 | 71 | 249 | 1.0 | 5.0 | 0.00 | 0.00 | 0.00 | 72 | 1006.6 |
| 20260506012852 | 71 | 270 | 0.0 | 4.0 | 0.00 | 0.00 | 0.00 | 72 | 1006.9 |
| 20260506012349 | 71 | 8 | 0.0 | 5.0 | 0.00 | 0.00 | 0.00 | 71 | 1006.5 |
| 20260506011846 | 72 | 263 | 1.0 | 3.0 | 0.00 | 0.00 | 0.00 | 71 | 1006.7 |
| 20260506011343 | 72 | 187 | 0.0 | 4.0 | 0.00 | 0.00 | 0.00 | 71 | 1006.6 |
| 20260506010840 | 73 | 84 | 0.0 | 4.0 | 0.00 | 0.00 | 0.00 | 70 | 1006.7 |
| 20260506010338 | 73 | 0 | 0.0 | 4.0 | 0.00 | 0.00 | 0.00 | 69 | 1006.6 |
| 20260506005835 | 73 | 283 | 1.0 | 4.0 | 0.00 | 0.00 | 0.00 | 69 | 1006.5 |
| 20260506005331 | 73 | 90 | 0.0 | 4.0 | 0.00 | 0.00 | 0.00 | 68 | 1006.6 |
| 20260506004827 | 74 | 98 | 1.0 | 3.0 | 0.00 | 0.00 | 0.00 | 69 | 1006.1 |
| 20260506004325 | 74 | 90 | 0.0 | 5.0 | 0.00 | 0.00 | 0.00 | 68 | 1005.8 |
| 20260506003821 | 74 | 192 | 0.0 | 3.0 | 0.00 | 0.00 | 0.00 | 68 | 1005.5 |
| 20260506003318 | 75 | 112 | 0.0 | 4.0 | 0.00 | 0.00 | 0.00 | 67 | 1005.8 |
| 20260506002814 | 75 | 84 | 3.0 | 3.0 | 0.00 | 0.00 | 0.00 | 67 | 1005.7 |
| 20260506002311 | 75 | 90 | 2.0 | 4.0 | 0.00 | 0.00 | 0.00 | 67 | 1005.4 |
| 20260506001806 | 76 | 37 | 0.0 | 4.0 | 0.00 | 0.00 | 0.00 | 67 | 1005.4 |
| 20260506001304 | 76 | 76 | 0.0 | 4.0 | 0.00 | 0.00 | 0.00 | 67 | 1005.4 |
| 20260506000801 | 77 | 277 | 4.0 | 5.0 | 0.00 | 0.00 | 0.00 | 66 | 1005.5 |
| 20260506000258 | 77 | 17 | 3.0 | 5.0 | 0.00 | 0.00 | 0.00 | 66 | 1005.4 |
| 20260505235755 | 78 | 56 | 2.0 | 4.0 | 0.00 | 0.00 | 0.00 | 65 | 1005.1 |
| 20260505235253 | 79 | 78 | 0.0 | 5.0 | 0.00 | 0.00 | 0.00 | 65 | 1005.3 |
| 20260505234749 | 79 | 83 | 0.0 | 5.0 | 0.00 | 0.00 | 0.00 | 64 | 1005.3 |
| 20260505234247 | 79 | 254 | 1.0 | 6.0 | 0.00 | 0.00 | 0.00 | 64 | 1005.0 |
| 20260505233743 | 80 | 345 | 0.0 | 4.0 | 0.00 | 0.00 | 0.00 | 63 | 1005.0 |
| 20260505233241 | 80 | 245 | 0.0 | 8.0 | 0.00 | 0.00 | 0.00 | 63 | 1004.9 |
| 20260505232738 | 81 | 321 | 4.0 | 4.0 | 0.00 | 0.00 | 0.00 | 63 | 1004.9 |
| 20260505232236 | 81 | 233 | 3.0 | 5.0 | 0.00 | 0.00 | 0.00 | 62 | 1004.9 |
| 20260505231732 | 82 | 270 | 0.0 | 5.0 | 0.00 | 0.00 | 0.00 | 62 | 1004.9 |
| 20260505231231 | 83 | 83 | 3.0 | 3.0 | 0.00 | 0.00 | 0.00 | 61 | 1004.8 |
| 20260505230729 | 83 | 320 | 5.0 | 5.0 | 0.00 | 0.00 | 0.00 | 60 | 1004.8 |
| 20260505230225 | 83 | 90 | 3.0 | 7.0 | 0.00 | 0.00 | 0.00 | 59 | 1004.7 |
| 20260505225722 | 84 | 270 | 0.0 | 4.0 | 0.00 | 0.00 | 0.00 | 58 | 1004.5 |
| 20260505225219 | 84 | 293 | 0.0 | 5.0 | 0.00 | 0.00 | 0.00 | 58 | 1004.4 |
| 20260505224714 | 84 | 270 | 4.0 | 5.0 | 0.00 | 0.00 | 0.00 | 57 | 1004.1 |
| 20260505224212 | 85 | 234 | 1.0 | 5.0 | 0.00 | 0.00 | 0.00 | 56 | 1004.3 |
| 20260505223710 | 85 | 323 | 0.0 | 4.0 | 0.00 | 0.00 | 0.00 | 55 | 1004.2 |
| 20260505223205 | 85 | 294 | 3.0 | 5.0 | 0.00 | 0.00 | 0.00 | 53 | 1004.4 |
| 20260505222702 | 86 | 351 | 2.0 | 7.0 | 0.00 | 0.00 | 0.00 | 52 | 1004.1 |
| 20260505222158 | 86 | 270 | 3.0 | 6.0 | 0.00 | 0.00 | 0.00 | 53 | 1004.0 |
| 20260505221655 | 86 | 285 | 3.0 | 6.0 | 0.00 | 0.00 | 0.00 | 52 | 1003.9 |
| 20260505221152 | 87 | 319 | 2.0 | 3.0 | 0.00 | 0.00 | 0.00 | 52 | 1003.8 |
| 20260505220649 | 87 | 188 | 0.0 | 3.0 | 0.00 | 0.00 | 0.00 | 50 | 1003.8 |
| 20260505220147 | 88 | 60 | 1.0 | 3.0 | 0.00 | 0.00 | 0.00 | 52 | 1003.6 |
| 20260505215644 | 88 | 130 | 4.0 | 4.0 | 0.00 | 0.00 | 0.00 | 51 | 1003.5 |
| 20260505215142 | 89 | 270 | 3.0 | 5.0 | 0.00 | 0.00 | 0.00 | 53 | 1003.8 |
| 20260505214640 | 90 | 270 | 1.0 | 2.0 | 0.00 | 0.00 | 0.00 | 55 | 1003.7 |
| 20260505214137 | 90 | 246 | 2.0 | 3.0 | 0.00 | 0.00 | 0.00 | 54 | 1003.9 |
| 20260505213634 | 90 | 270 | 3.0 | 3.0 | 0.00 | 0.00 | 0.00 | 54 | 1003.8 |
| 20260505213131 | 90 | 331 | 0.0 | 4.0 | 0.00 | 0.00 | 0.00 | 54 | 1003.9 |
| 20260505212626 | 90 | 188 | 0.0 | 1.0 | 0.00 | 0.00 | 0.00 | 56 | 1003.8 |
| 20260505212125 | 90 | 270 | 1.0 | 4.0 | 0.00 | 0.00 | 0.00 | 54 | 1003.7 |
| 20260505211621 | 90 | 228 | 2.0 | 3.0 | 0.00 | 0.00 | 0.00 | 57 | 1003.9 |
| 20260505211119 | 89 | 255 | 0.0 | 4.0 | 0.00 | 0.00 | 0.00 | 56 | 1004.2 |
| 20260505210615 | 90 | 297 | 1.0 | 4.0 | 0.00 | 0.00 | 0.00 | 57 | 1004.1 |
| 20260505210112 | 90 | 221 | 2.0 | 5.0 | 0.00 | 0.00 | 0.00 | 57 | 1003.9 |
| 20260505205609 | 89 | 309 | 2.0 | 5.0 | 0.00 | 0.00 | 0.00 | 58 | 1004.4 |
| 20260505205107 | 89 | 270 | 2.0 | 6.0 | 0.00 | 0.00 | 0.00 | 56 | 1004.4 |
| 20260505204604 | 89 | 195 | 1.0 | 3.0 | 0.00 | 0.00 | 0.00 | 58 | 1004.3 |
| 20260505204101 | 90 | 270 | 1.0 | 6.0 | 0.00 | 0.00 | 0.00 | 59 | 1004.2 |
| 20260505203558 | 89 | 263 | 1.0 | 3.0 | 0.00 | 0.00 | 0.00 | 59 | 1004.3 |
| 20260505203055 | 89 | 277 | 5.0 | 7.0 | 0.00 | 0.00 | 0.00 | 58 | 1004.2 |
| 20260505202551 | 90 | 180 | 0.0 | 2.0 | 0.00 | 0.00 | 0.00 | 59 | 1004.5 |
| 20260505202047 | 90 | 270 | 2.0 | 6.0 | 0.00 | 0.00 | 0.00 | 59 | 1004.8 |
| 20260505201544 | 89 | 270 | 3.0 | 6.0 | 0.00 | 0.00 | 0.00 | 60 | 1004.6 |
| 20260505201042 | 89 | 270 | 2.0 | 2.0 | 0.00 | 0.00 | 0.00 | 59 | 1004.7 |
| 20260505200539 | 88 | 286 | 2.0 | 3.0 | 0.00 | 0.00 | 0.00 | 61 | 1004.8 |
| 20260505200036 | 88 | 246 | 3.0 | 6.0 | 0.00 | 0.00 | 0.00 | 59 | 1004.9 |
| 20260505195532 | 88 | 240 | 0.0 | 7.0 | 0.00 | 0.00 | 0.00 | 61 | 1004.7 |
| 20260505195030 | 88 | 285 | 0.0 | 5.0 | 0.00 | 0.00 | 0.00 | 62 | 1004.5 |
| 20260505194527 | 87 | 294 | 1.0 | 4.0 | 0.00 | 0.00 | 0.00 | 63 | 1004.8 |
| 20260505194022 | 87 | 270 | 0.0 | 8.0 | 0.00 | 0.00 | 0.00 | 62 | 1004.8 |
| 20260505193520 | 87 | 306 | 1.0 | 5.0 | 0.00 | 0.00 | 0.00 | 62 | 1004.7 |
| 20260505193017 | 87 | 295 | 0.0 | 6.0 | 0.00 | 0.00 | 0.00 | 63 | 1004.9 |
| 20260505192516 | 87 | 270 | 0.0 | 6.0 | 0.00 | 0.00 | 0.00 | 64 | 1005.0 |
| 20260505192013 | 87 | 236 | 2.0 | 3.0 | 0.00 | 0.00 | 0.00 | 64 | 1004.8 |
| 20260505191511 | 86 | 270 | 3.0 | 8.0 | 0.00 | 0.00 | 0.00 | 64 | 1005.0 |
| 20260505191008 | 86 | 253 | 2.0 | 5.0 | 0.00 | 0.00 | 0.00 | 66 | 1004.8 |
| 20260505190503 | 85 | 262 | 1.0 | 3.0 | 0.00 | 0.00 | 0.00 | 66 | 1004.6 |
| 20260505185958 | 85 | 201 | 2.0 | 3.0 | 0.00 | 0.00 | 0.00 | 66 | 1004.7 |
| 20260505185456 | 85 | 255 | 5.0 | 7.0 | 0.00 | 0.00 | 0.00 | 67 | 1004.8 |
| 20260505184952 | 85 | 240 | 0.0 | 7.0 | 0.00 | 0.00 | 0.00 | 67 | 1004.8 |
| 20260505184449 | 85 | 270 | 0.0 | 2.0 | 0.00 | 0.00 | 0.00 | 68 | 1004.8 |
| 20260505183945 | 84 | 265 | 2.0 | 5.0 | 0.00 | 0.00 | 0.00 | 68 | 1005.0 |
| 20260505183442 | 84 | 270 | 0.0 | 7.0 | 0.00 | 0.00 | 0.00 | 69 | 1005.0 |
| 20260505182939 | 84 | 262 | 3.0 | 5.0 | 0.00 | 0.00 | 0.00 | 69 | 1005.3 |
| 20260505182436 | 83 | 216 | 3.0 | 5.0 | 0.00 | 0.00 | 0.00 | 69 | 1005.1 |
| 20260505181932 | 84 | 201 | 2.0 | 8.0 | 0.00 | 0.00 | 0.00 | 69 | 1005.0 |
| 20260505181430 | 83 | 277 | 3.0 | 3.0 | 0.00 | 0.00 | 0.00 | 69 | 1005.0 |
| 20260505180927 | 83 | 262 | 3.0 | 9.0 | 0.00 | 0.00 | 0.00 | 68 | 1005.3 |
| 20260505180423 | 84 | 257 | 4.0 | 13.0 | 0.00 | 0.00 | 0.00 | 68 | 1005.0 |
| 20260505175919 | 84 | 270 | 2.0 | 6.0 | 0.00 | 0.00 | 0.00 | 69 | 1005.2 |
| 20260505175416 | 84 | 217 | 0.0 | 3.0 | 0.00 | 0.00 | 0.00 | 69 | 1005.1 |
| 20260505174912 | 83 | 270 | 5.0 | 10.0 | 0.00 | 0.00 | 0.00 | 68 | 1005.0 |
| 20260505174410 | 83 | 278 | 1.0 | 5.0 | 0.00 | 0.00 | 0.00 | 68 | 1004.9 |
| 20260505173906 | 84 | 225 | 2.0 | 4.0 | 0.00 | 0.00 | 0.00 | 67 | 1005.2 |
| 20260505173402 | 83 | 268 | 6.0 | 8.0 | 0.00 | 0.00 | 0.00 | 69 | 1005.0 |
| 20260505172859 | 83 | 194 | 0.0 | 9.0 | 0.00 | 0.00 | 0.00 | 71 | 1005.0 |
| 20260505172357 | 82 | 270 | 1.0 | 7.0 | 0.00 | 0.00 | 0.00 | 70 | 1005.0 |
| 20260505171857 | 83 | 262 | 3.0 | 9.0 | 0.00 | 0.00 | 0.00 | 70 | 1005.0 |
| 20260505171353 | 84 | 277 | 1.0 | 3.0 | 0.00 | 0.00 | 0.00 | 70 | 1005.2 |
| 20260505170850 | 83 | 270 | 0.0 | 3.0 | 0.00 | 0.00 | 0.00 | 72 | 1005.0 |
| 20260505170347 | 83 | 233 | 2.0 | 4.0 | 0.00 | 0.00 | 0.00 | 72 | 1005.3 |
| 20260505165842 | 82 | 276 | 0.0 | 5.0 | 0.00 | 0.00 | 0.00 | 72 | 1005.0 |
| 20260505165338 | 81 | 263 | 3.0 | 6.0 | 0.00 | 0.00 | 0.00 | 72 | 1005.3 |
| 20260505164834 | 81 | 270 | 3.0 | 6.0 | 0.00 | 0.00 | 0.00 | 72 | 1005.2 |
| 20260505164331 | 81 | 258 | 3.0 | 3.0 | 0.00 | 0.00 | 0.00 | 73 | 1005.0 |
| 20260505163829 | 81 | 265 | 2.0 | 5.0 | 0.00 | 0.00 | 0.00 | 73 | 1005.1 |
| 20260505163328 | 80 | 109 | 2.0 | 7.0 | 0.00 | 0.00 | 0.00 | 73 | 1004.9 |
| 20260505162826 | 80 | 243 | 5.0 | 6.0 | 0.00 | 0.00 | 0.00 | 74 | 1005.0 |
| 20260505162322 | 80 | 210 | 3.0 | 7.0 | 0.00 | 0.00 | 0.00 | 74 | 1005.0 |
| 20260505161819 | 81 | 187 | 2.0 | 4.0 | 0.00 | 0.00 | 0.00 | 75 | 1005.1 |
| 20260505161316 | 80 | 83 | 1.0 | 5.0 | 0.00 | 0.00 | 0.00 | 76 | 1004.9 |
| 20260505160814 | 79 | 243 | 0.0 | 5.0 | 0.00 | 0.00 | 0.00 | 77 | 1005.2 |
| 20260505160312 | 79 | 293 | 2.0 | 4.0 | 0.00 | 0.00 | 0.00 | 77 | 1004.9 |
| 20260505153250 | 77 | 273 | 3.0 | 9.0 | 0.00 | 0.00 | 0.00 | 79 | 1005.0 |
| 20260505152747 | 77 | 270 | 2.0 | 4.0 | 0.00 | 0.00 | 0.00 | 79 | 1004.9 |
| 20260505152244 | 77 | 262 | 3.0 | 4.0 | 0.00 | 0.00 | 0.00 | 79 | 1004.9 |
| 20260505151744 | 77 | 246 | 2.0 | 5.0 | 0.00 | 0.00 | 0.00 | 79 | 1005.0 |
| 20260505151242 | 77 | 263 | 1.0 | 4.0 | 0.00 | 0.00 | 0.00 | 80 | 1004.8 |